Location: Martley
(52.2333°N, 2.3667°W)
Time: 23:04:03
(UTC+00:00)

Cosmos 1602 - Pass Details

Date: 11 December 2019
Orbit: 515 x 534 km, 82.5° (Epoch: 22 January)

Event Time Altitude Azimuth Distance (km) Brightness Sun altitude
Rises 06:20:20 0° 210° (SSW) 2,625 7.2 -15.3°
Reaches altitude 10° 06:22:35 10° 219° (SW) 1,744 6.2 -15.0°
Maximum altitude 06:26:08 36° 288° (WNW) 834 4.2 -14.5°
Drops below altitude 10° 06:29:44 10° 356° (N) 1,761 6.2 -14.0°
Sets 06:32:00 0° 5° (N) 2,657 7.2 -13.7°
